Showing default

KUIPER-00038, 63750

Orbit data source: Space-Track

KUIPER-00038, 63750 is a payload satellite owned by Kuiper Systems (US) in LEO that was launched on Mon, 28 Apr 2025 UTC via an ATLAS V 551 launch vehicle from the Air Force Eastern Test Range (AFETR). Payload-class satellites include a variety of spacecraft equipped with specific instruments for various scientific and technological missions. These include communications satellites like Starlink; space stations such as the ISS; scientific satellites like the Hubble; Earth observation satellites from companies like Planet Labs, Umbra, and HawkEye 360; GPS; miniature CubeSats for education and research; and military/defense satellites.

Loading next visibility...
Identifier
63750, 2025-088AC
Orbit
LEO
Country
Flag of USUS
Related business
Manufacturer
Kuiper Systems
Mission
Operational Commercial Communications
Bus & Motor
KUIPER, Unknown motor
Mass
~490 kg wet, ~490 kg dry
Launch date (UTC)
2025-04-28 (8 months ago)
Launch vehicle
ATLAS V 551
Launch site
Air Force Eastern Test Range (AFETR)
Object type
Payload
Rocket body
Debris
Shape & HBR
Box + 2 Pan, 3.4 m
Radar Cross Section
2.326 m², Large (>1 m²)

Expand to show TLE details & history
Last TLE update: 1 day ago

TLE from 1 day ago
0 KUIPER-00038
1 63750U 25088AC  25348.36733827 -.00000250  00000-0 -35480-5 0  9999
2 63750  51.8997 115.3716 0007860 145.8068 214.3402 14.79971821 34887
Epoch: 2025-12-14T08:48Z
TLE epoch observation values (Epoch: 2025-12-14T08:48:58.026Z)
Latitude
-0.00001°
Longitude
-100.15145°
Altitude
634.709 km
Speed
7.54 km/s
True Right ascension
07h 41m 29s
True Declination
0° 00' 00"
Sunlit
Object was in full shadow at epoch
Visualization orbit readout
Latitude
Unknown
Longitude
Unknown
Altitude
Unknown
Speed
Unknown
Apparent Right ascension
Unknown
Apparent Declination
Unknown
Sunlit
N/A
Visualization observer readout
Local Sidereal Time
13:23:47
Azimuth
Unknown
Elevation
Unknown
Doppler factor
Unknown
Orbital elements
Apogee altitude
635.373 km
Perigee altitude
624.356 km
Semi-major axis
7,008.001 km
Eccentricity
0.00079
Inclination
51.8997°
RAAN
115.3716°
Arg. of periapsis
145.8068°
True anomaly
214.28943°
Mean anomaly
214.3402°
Eccentric anomaly
214.31481°
Mean motion
3.69958 °/min
Orbital period
97.31 mins
BSTAR
-0.000003548
Loading maneuver chart data...
Computing Atmospheric mass density...
Loading historical data...
Loading historical data...
Loading historical data...
Loading historical data...
Loading historical data...
Loading historical data...
Loading historical data...

Documentation

Showing up to 5 results
|